Theta_e
292 291 290 289 290 290 290 290 290 290 290 291 292 292 292 293 294 295 295 297 299 300 302 302 304 307 305 306 307 308 306 305 299 289 291 291 294 294 293 296 295 298 300
290 289 289 289 289 288 289 289 290 290 290 290 291 291 291 292 294 293 292 297 297 299 300 302 302 306 305 305 306 305 306 305 296 287 285 287 291 293 293 293 293 296 296
289 288 287 287 288 288 289 289 290 290 290 291 291 290 290 291 292 292 294 294 295 295 296 298 302 303 303 305 305 304 304 303 296 287 285 287 286 291 288 290 289 290 291
287 287 286 287 288 288 289 289 289 289 289 289 290 290 290 291 291 292 292 294 294 295 295 296 298 302 303 303 303 302 301 295 290 290 286 287 286 287 289 287 285 286 286
287 286 286 286 287 288 288 288 289 289 289 289 289 290 290 290 291 291 292 292 292 293 294 297 299 298 297 302 301 299 296 296 291 289 285 284 284 283 285 285 286 284 284
286 286 286 286 287 287 287 287 288 288 288 289 289 289 289 290 292 292 292 292 292 293 293 294 295 293 295 296 297 297 298 296 293 290 288 288 287 287 287 285 285 282 280
286 285 286 285 285 286 286 287 286 287 288 287 288 288 288 290 292 292 292 293 292 292 291 291 291 295 295 297 296 296 295 296 296 293 291 290 287 287 287 284 284 285 283
285 285 285 285 285 285 286 286 286 286 286 286 286 287 288 290 291 292 291 291 291 290 291 291 291 291 294 293 292 289 289 290 291 290 291 289 289 288 288 287 286 281 281
284 283 284 285 285 285 285 285 286 285 285 285 285 286 287 288 292 292 291 289 289 289 290 291 291 291 291 292 289 287 286 286 291 292 291 291 291 290 288 285 283 282 278
283 284 285 285 285 284 285 285 285 286 285 285 285 286 287 288 291 293 292 287 286 285 286 286 287 290 291 292 288 287 285 285 286 287 287 289 288 288 289 287 285 284 279
285 285 285 285 285 285 285 285 285 285 285 285 285 285 286 287 289 292 291 286 286 286 286 286 288 291 291 291 290 287 285 286 286 283 282 282 282 282 283 283 284 285 282
285 285 285 285 285 285 285 285 286 285 285 284 284 284 285 286 288 291 290 289 289 286 285 287 288 290 290 289 287 288 287 285 283 282 281 280 279 279 279 280 280 280 280
284 285 285 285 285 285 285 284 284 285 284 284 283 283 283 284 286 289 289 289 288 286 286 288 288 288 288 287 287 287 284 284 282 280 279 278 279 278 279 278 278 278 278
282 285 285 285 285 285 285 284 284 283 283 283 283 282 283 283 284 285 285 286 286 286 285 284 285 285 285 284 283 284 283 282 281 279 278 279 280 280 279 280 278 278 276
279 284 284 285 285 284 284 284 284 285 285 282 282 283 282 282 284 286 285 284 284 284 283 282 282 282 281 281 281 282 282 281 280 281 280 279 278 278 278 278 277 277 276
280 283 283 283 284 283 283 283 286 286 287 287 287 285 285 287 287 287 287 287 287 286 282 280 279 279 278 278 278 278 279 279 279 279 279 278 277 276 276 276 275 273 270
278 279 278 279 278 276 276 275 277 281 286 286 286 286 287 286 287 287 286 287 286 284 280 279 278 278 277 276 276 276 275 275 276 277 277 275 274 271 270 268 268 267 265
273 276 276 275 276 275 275 276 275 275 277 278 283 284 285 286 286 285 285 283 279 280 279 278 277 276 276 275 273 272 270 269 269 269 268 268 267 266 264 263 263 262 262
274 274 274 274 273 274 274 274 276 279 278 272 273 279 279 282 282 282 281 276 275 274 274 273 273 271 269 267 266 266 266 265 265 265 264 264 263 263 261 261 261 259 259
274 275 276 274 275 274 272 277 273 272 273 276 276 275 268 270 273 272 272 272 270 269 268 268 267 267 267 267 266 265 264 263 263 263 262 262 261 262 260 259 258 258 256
277 274 275 275 274 276 275 273 272 272 276 274 275 277 276 271 268 267 267 267 266 266 266 266 265 265 265 264 264 263 263 262 262 262 262 260 261 260 259 258 256 253 252
278 276 275 277 275 275 275 276 278 277 270 271 272 274 273 268 266 265 264 264 263 263 263 264 263 263 263 263 263 262 261 260 259 260 260 259 259 257 255 253 252 250 249
279 277 276 275 275 275 274 273 277 276 269 266 263 264 265 264 263 263 262 262 262 262 260 262 262 262 261 261 260 261 261 260 258 259 259 257 256 254 253 251 250 249 249
279 278 277 276 275 275 275 273 271 270 269 268 266 264 263 263 261 260 261 260 261 260 259 260 260 260 260 260 259 258 258 257 257 258 258 257 253 252 251 250 250 250 248
280 279 277 276 275 275 273 271 269 269 268 267 265 264 262 262 260 259 259 259 260 260 257 257 258 258 259 258 257 255 260 258 255 255 254 254 254 252 250 249 249 249 248
281 280 279 277 276 274 271 269 269 269 268 266 265 264 263 261 261 260 259 259 259 258 256 256 257 257 257 256 256 257 262 261 256 255 252 253 253 251 250 249 249 248 248
Wind_Speed
11 12 12 12 13 13 13 14 15 16 15 16 16 15 16 17 16 13 15 17 16 17 17 14 14 13 9 8 9 10 11 9 10 2 2 3 11 10 9 9 8 12 12
11 12 13 14 13 13 13 15 15 16 16 16 15 16 16 17 15 13 16 15 14 14 13 14 11 10 14 12 10 12 13 11 5 7 3 3 7 13 11 12 10 10 12
11 12 14 14 13 13 13 14 14 15 16 15 15 16 15 16 15 15 14 16 13 13 10 10 9 12 14 11 12 11 10 7 5 5 4 3 2 9 6 7 7 6 5
11 12 14 13 13 13 14 14 15 15 15 15 15 15 15 15 14 14 16 12 15 12 11 13 16 10 13 13 13 12 8 5 4 6 3 4 3 4 8 10 7 5 6
11 13 15 15 12 13 13 13 14 13 12 15 15 14 13 13 10 13 12 12 11 10 11 11 14 12 15 15 11 11 11 8 6 6 3 3 4 5 12 7 8 6 3
11 13 13 13 13 12 12 13 13 12 12 12 12 10 10 9 14 18 15 11 11 11 11 9 10 8 13 20 18 19 17 13 11 7 6 8 9 8 9 8 6 7 5
11 13 11 12 12 12 12 12 12 11 11 9 6 6 8 9 13 15 15 9 5 8 7 8 6 5 12 14 16 19 17 18 17 13 12 10 9 12 12 10 9 8 3
10 11 10 11 11 12 12 11 11 10 11 9 6 5 5 5 11 14 10 9 9 5 5 6 6 5 11 13 11 8 6 4 6 4 6 5 4 9 12 7 9 8 7
10 11 10 10 11 11 11 11 10 8 10 9 6 4 3 4 7 9 8 5 5 6 5 7 6 6 14 21 13 11 8 5 9 12 12 14 16 18 14 11 9 10 3
10 10 9 9 9 10 10 9 8 7 8 8 7 3 4 5 8 11 8 4 4 4 4 5 5 10 19 20 13 12 11 6 11 10 9 12 12 13 13 7 9 8 5
9 8 8 9 9 9 8 6 8 7 7 8 8 8 7 4 5 8 13 4 5 5 5 4 4 18 17 17 17 9 11 11 16 12 10 8 8 8 6 7 7 6 5
8 7 8 9 7 6 8 7 7 7 6 7 7 8 8 8 7 11 15 15 12 9 7 6 10 21 22 21 15 24 23 15 9 9 9 8 9 7 7 8 10 9 7
6 7 8 8 8 7 7 8 6 6 5 6 6 7 7 7 9 16 17 21 20 12 11 21 27 25 25 21 22 20 14 9 10 10 9 8 7 6 7 8 11 13 13
4 6 6 7 8 9 6 7 7 6 5 6 6 5 5 6 7 7 9 12 22 17 19 16 21 22 21 16 14 13 9 8 9 10 9 7 6 6 7 5 8 8 9
3 4 5 4 5 6 10 9 8 11 10 6 6 6 6 8 9 13 11 9 9 14 13 12 12 11 11 11 10 11 10 10 10 9 8 7 7 7 7 6 5 6 8
1 2 2 3 3 2 4 8 21 22 21 19 19 12 10 17 21 22 23 22 23 22 12 12 11 10 10 9 10 10 10 10 8 8 7 7 7 7 8 8 8 9 9
4 2 0 2 3 3 3 3 4 10 22 22 21 21 19 18 21 24 25 23 22 19 12 11 10 9 9 10 9 9 9 7 8 7 7 7 8 8 9 7 7 8 8
4 4 3 1 2 2 2 3 2 5 7 7 17 17 19 18 18 19 20 19 12 13 10 10 10 9 10 9 8 8 8 7 7 7 8 8 8 8 8 8 8 8 7
5 3 3 2 2 3 2 3 3 4 6 3 3 9 11 20 23 23 20 10 10 10 9 10 9 9 8 8 7 7 7 7 6 7 7 8 7 9 9 8 8 8 6
4 7 5 4 3 4 2 3 4 3 4 5 5 4 3 4 8 9 9 8 9 8 8 9 8 7 7 8 7 7 8 8 7 8 8 8 8 8 8 7 6 7 5
5 5 6 5 3 5 5 4 3 4 6 6 7 6 12 9 7 7 7 8 8 8 8 8 7 7 7 7 7 8 8 7 7 8 8 7 7 8 6 6 5 5 4
7 7 5 6 5 4 5 5 5 5 4 5 6 8 14 8 7 8 7 7 7 7 5 7 7 6 5 6 7 8 8 8 7 7 7 6 7 5 5 4 4 3 3
7 8 6 5 5 7 6 4 6 5 6 4 4 5 6 7 7 7 7 6 6 7 5 7 8 8 6 6 5 6 9 7 5 6 7 5 5 4 4 3 4 3 3
9 10 10 7 6 6 6 7 6 7 7 6 6 5 6 6 7 7 7 6 7 7 6 6 7 8 7 7 6 5 6 5 4 5 7 6 4 4 3 3 3 3 3
10 10 10 10 9 8 8 7 7 7 7 7 6 6 6 7 7 6 6 6 6 7 6 6 6 8 10 10 8 7 7 8 6 5 4 5 6 5 4 3 2 2 2
11 12 10 9 9 9 8 8 8 8 9 8 7 7 7 8 8 7 7 8 7 6 5 4 7 10 9 7 8 7 7 7 5 5 4 4 4 3 3 3 3 2 3
Wind_Direction
315 307 298 295 290 286 280 279 276 275 271 268 261 260 260 260 249 252 257 257 261 242 253 229 222 200 197 190 197 189 202 207 193 138 133 146 180 190 175 189 164 181 192
311 308 298 294 289 287 282 277 274 272 269 265 257 254 251 251 244 245 253 248 237 252 237 255 220 199 196 192 194 202 201 196 150 151 127 142 185 191 185 189 182 189 183
309 306 301 292 292 294 289 286 286 282 275 269 256 247 244 244 246 243 244 248 243 254 269 277 254 211 198 191 194 193 196 179 156 132 131 148 125 167 158 179 176 183 201
307 302 297 300 304 299 294 294 286 279 274 268 260 249 242 239 236 239 237 246 238 233 249 267 276 263 212 189 181 189 181 148 131 129 118 137 117 165 172 176 176 182 177
306 308 309 311 307 299 300 299 291 285 283 277 266 248 239 233 228 229 238 230 241 247 246 249 253 268 223 173 169 171 161 161 154 148 123 126 154 152 183 171 188 167 148
315 306 312 315 313 312 309 305 299 298 299 294 276 243 229 228 226 222 224 227 229 236 226 241 255 264 208 164 165 167 167 177 178 167 166 192 186 181 170 169 157 165 187
309 310 317 318 317 316 310 309 305 313 309 302 287 235 228 225 228 227 226 223 233 224 211 236 257 233 192 166 155 165 177 178 178 182 188 198 172 178 162 166 176 181 150
311 304 317 316 319 321 312 319 319 322 317 311 285 260 236 229 231 224 219 222 229 241 214 211 206 195 164 141 134 119 126 130 147 154 185 164 159 163 178 173 152 112 78
308 322 320 317 324 320 318 327 320 325 324 322 307 256 238 250 238 226 219 187 201 214 221 200 174 199 142 126 122 116 105 90 103 115 117 123 137 153 144 128 149 131 113
324 311 320 318 323 322 317 331 317 327 331 328 342 356 238 255 240 229 196 141 134 116 100 87 186 158 137 128 126 129 118 119 114 102 98 99 109 128 132 127 141 139 116
311 311 330 322 328 312 328 330 330 340 349 350 360 13 21 38 63 123 136 105 121 106 91 77 103 109 113 118 116 120 123 120 111 102 97 92 82 75 75 74 73 107 108
313 329 342 336 338 333 345 346 340 346 358 3 13 26 18 10 41 99 110 108 99 95 87 88 99 103 103 101 98 116 116 109 104 99 98 91 87 83 71 76 77 72 59
328 344 359 352 355 358 4 6 352 357 14 20 26 40 29 26 36 58 90 98 97 93 93 95 90 88 90 89 96 96 97 96 99 96 91 76 74 85 95 87 81 78 67
338 349 359 1 8 19 18 29 17 15 25 30 42 47 47 53 58 67 74 82 89 93 90 87 89 86 83 86 78 71 72 81 90 91 88 89 96 91 86 88 94 98 89
353 349 358 347 352 32 45 39 35 40 42 38 40 42 53 64 63 75 86 88 91 98 100 93 85 81 79 73 73 74 78 78 86 86 93 100 93 90 79 81 75 76 84
73 340 356 341 337 355 48 62 51 56 54 54 59 62 70 84 85 84 85 87 90 91 82 82 81 82 84 84 80 75 67 70 77 90 93 101 103 97 85 61 61 70 78
155 207 327 14 3 8 357 51 60 34 56 60 57 61 65 79 80 86 84 78 81 85 80 80 81 82 82 76 74 75 76 61 64 71 85 81 88 80 77 76 76 83 81
160 208 156 163 95 45 28 55 65 67 57 45 41 56 62 72 74 78 84 80 68 61 71 80 83 78 74 76 72 72 70 68 69 74 74 73 77 89 90 83 76 81 80
161 183 159 154 133 116 86 73 54 83 88 54 15 45 41 68 67 64 64 72 83 77 72 70 66 69 73 78 80 79 83 80 76 79 74 76 74 86 79 77 84 81 89
177 167 159 151 157 120 99 114 90 64 66 78 66 29 0 66 62 57 55 68 74 72 72 78 75 80 88 93 93 92 89 81 81 82 78 77 71 80 89 87 76 76 61
175 155 167 145 160 150 135 130 117 109 102 91 78 74 85 89 81 69 67 61 70 77 81 84 83 83 83 86 89 90 90 89 83 85 88 86 91 94 92 97 96 83 91
174 160 165 166 148 147 136 136 133 108 92 97 86 83 87 77 84 84 77 72 68 69 68 89 82 75 76 91 105 104 101 100 98 102 104 102 99 94 98 101 107 111 110
171 156 158 153 148 142 132 131 139 123 110 96 80 83 81 89 91 93 93 85 82 82 66 83 91 85 72 73 66 92 111 119 128 114 110 108 111 111 110 117 128 105 101
174 164 161 158 154 153 148 141 123 122 131 121 112 98 99 98 101 98 99 94 95 87 79 90 95 102 96 87 85 82 91 96 104 115 116 121 127 124 120 113 118 113 125
173 169 162 164 163 159 147 142 137 136 134 131 129 117 114 114 107 101 94 95 97 99 91 95 98 101 98 103 107 114 108 97 104 114 112 119 132 125 109 104 122 102 108
175 171 163 160 162 157 154 151 151 148 144 137 135 130 134 129 125 123 122 116 114 105 98 86 98 103 105 104 116 125 128 135 139 140 127 116 116 111 103 133 145 131 130